COSMOS 886 DEB, 9966

Orbit data source: Space-Track

COSMOS 886 DEB, 9966 is space debris in LEO originally from a launch on Mon, 27 Dec 1976 UTC launched from the Tyuratam Missile And Space Complex (TTMTR). Debris objects in space refer to the collection of defunct objects orbiting the Earth. Examples of debris include non-operational satellites, rocket bodies, and fragments generated from explosions, collisions, or faulty payload assembly.

Loading next visibility...
Identifier
9966, 1976-126BG
Orbit
LEO
Country
Flag of CISCIS
Related business
Manufacturer
Unknown
Mission
Spacecraft
Bus & Motor
Unknown
Mass
Unknown
Launch date (UTC)
1976-12-27 (49 years ago)
Launch vehicle
Unknown
Launch site
Tyuratam Missile And Space Complex (TTMTR)
Object type
Payload
Rocket body
Debris
Shape & HBR
Unknown shape, 0.1 m
Radar Cross Section
Small (<0.1 m²)

Expand to show TLE details & history
Last TLE update: 13 hours ago

TLE from 13 hours ago
0 COSMOS 886 DEB
1  9966U 76126BG  26130.02439934  .00002322  00000-0  80808-3 0  9994
2  9966  65.7787   2.2335 0615886  11.1737 350.2300 13.64274824366077
Epoch: 2026-05-10T00:35Z
TLE epoch observation values (Epoch: 2026-05-10T00:35:08.102Z)
Latitude
-0.00005°
Longitude
125.6163°
Altitude
573.969 km
Speed
7.8 km/s
True Right ascension
00h 08m 56s
True Declination
0° 00' 00"
Sunlit
Object was in daylight at epoch
Visualization orbit readout
Latitude
Unknown
Longitude
Unknown
Altitude
Unknown
Speed
Unknown
Apparent Right ascension
Unknown
Apparent Declination
Unknown
Sunlit
N/A
Visualization observer readout
Local Sidereal Time
22:01:56
Azimuth
Unknown
Elevation
Unknown
Doppler factor
Unknown
Orbital elements
Apogee altitude
1,474.282 km
Perigee altitude
563.158 km
Semi-major axis
7,396.857 km
Eccentricity
0.06159
Inclination
65.7787°
RAAN
2.2335°
Arg. of periapsis
11.1737°
True anomaly
348.93453°
Mean anomaly
350.23°
Eccentric anomaly
349.59254°
Mean motion
3.41171 °/min
Orbital period
105.52 mins
BSTAR
0.00080808
Loading maneuver chart data...
Computing Atmospheric mass density...
Loading historical data...
Loading historical data...
Loading historical data...
Loading historical data...
Loading historical data...
Loading historical data...
Loading historical data...

Documentation

Showing up to 5 results
|